Погода METAR - Новосибирск (Толмачево)

Кемерово, Абакан, Красноярск, Новосибирск
Код METAR: UNNT 270330Z 00000MPS 9999 OVC033 07/04 Q1030 R25/090070 R16/090070 NOSIG RMK QFE763/1017

Погода - Сейчас

Время: 2020-09-27 10:30, местное
Направление ветра: Штиль
Скорость ветра: 0 м/с
Видимость:
Температура: 7°C
Точка росы: 4°C
Атмосферное давление: 1030 гПа

Архив погоды

Время, местное Направление Скорость, м/с Температура, °C Точка росы, °C Давление, гПа
2020-09-27 10:30 Штиль 0 7 4 1030
2020-09-25 20:00 ССЗ (330°) 3 8 7 1016
2020-09-25 05:30 С (360°) 1 4 4 1004
2020-09-23 06:00 ЮВ (130°) 3 7 6 1009
2020-09-22 21:00 ЮЮЗ (200°) 4 12 2 1014
2020-09-21 18:00 ЮЮВ (160°) 4 21 7 1007
2020-09-20 22:00 Ю (170°) 2 12 8 1017
2020-09-20 05:00 Ю (190°) 5 10 7 1020
2020-09-18 14:30 ЮЗ (220°) 6 12 8 1008
2020-09-17 21:30 Ю (180°) 4 12 9 1002
2020-09-16 05:30 ЮВ (140°) 4 11 7 1002
2020-09-15 09:00 Штиль 0 6 6 1013
2020-09-15 07:30 С (350°) 1 0 1000
2020-09-15 03:00 ЮВ (140°) 1 5 5 1015
2020-09-14 17:00 ЮЮВ (150°) 2 21 6 1018
2020-09-11 23:00 ЮЮВ (150°) 2 9 8 1028
2020-09-11 12:30 Штиль 0 13 9 1027
2020-09-11 01:30 СЗ (310°) 1 9 8 1024
2020-09-10 16:00 ЗСЗ (290°) 4 16 7 1022
2020-09-10 05:30 ЗЮЗ (260°) 2 0 1300
2020-09-10 02:00 ЗЮЗ (260°) 3 4 4 1021
2020-09-09 03:00 ЗСЗ (290°) 3 8 8 1016
2020-09-09 01:00 З (270°) 3 8 8 1015
2020-09-06 04:00 ЮЗ (210°) 4 8 7 1013
2020-09-05 07:30 ЗЮЗ (240°) 5 7 6 1011
2020-09-04 03:30 ЗЮЗ (250°) 3 9 8 1007
2020-09-03 17:30 З (280°) 7 24 14 1000
2020-09-01 17:00 ЗЮЗ (260°) 4 18 14 1008
2020-09-01 14:00 ЗЮЗ (250°) 4 19 15 1008
2020-08-24 22:30 Переменный 1 15 11 1004
2020-08-24 13:30 ЮЮЗ (200°) 3 20 12 1004
2020-08-24 06:00 Штиль 0 12 12 1004
2020-08-21 12:00 ЮЗ (210°) 2 21 7 1003
2020-08-21 03:30 ЮЮВ (160°) 3 12 11 1004
2020-08-20 07:00 Ю (190°) 5 14 12 1000
2020-08-19 21:00 ВСВ (60°) 3 14 14 1001
2020-08-19 18:30 ЮВ (140°) 7 18 13 1001
2020-08-19 18:00 ЮВ (130°) 8 18 13 1001
2020-08-19 08:00 Ю (180°) 3 14 11 1002
2020-08-19 07:30 Ю (190°) 4 14 11 1002
2020-08-19 04:00 ЮЗ (220°) 3 15 12 1001
2020-08-18 22:00 ЮЗ (230°) 4 15 13 1000
2020-08-18 17:30 З (280°) 7 20 15 996
2020-08-18 08:30 ВЮВ (110°) 4 18 16 1000
2020-08-17 23:30 ЮВ (130°) 2 19 15 1003
2020-08-17 23:00 Штиль 0 19 15 1003
2020-08-17 17:30 Переменный 1 26 14 1003
2020-08-17 06:00 С (350°) 1 11 11 1008